Wind_Speed
21 21 22 25 26 28 27 26 25 24 25 24 24 24 26 26 27 28 30 31 31 31 30 28 25 24 23 23 22 22 21 21 20 20 19 18 18 19 19 19 18 16 14 15 14 13 13 13 12 12 12 12 13 13 14 15 15 15 14 15 16 15 15 14 13 13 13 14 14 13 14 13 13 13 13 13 14 14 14 15 15 14 15 13 12
22 22 23 24 26 28 27 27 25 25 25 26 26 25 26 27 29 29 30 30 30 30 28 25 22 22 22 21 21 21 21 21 20 19 19 18 19 18 19 19 18 17 15 15 14 13 13 13 12 12 12 12 13 13 14 14 14 14 15 15 15 15 15 14 13 12 12 14 14 13 14 14 13 13 12 13 14 14 14 14 14 14 14 13 13
22 22 22 24 26 27 27 27 25 25 25 26 26 26 26 26 28 29 29 29 29 27 24 22 21 21 20 20 20 21 21 20 20 18 18 19 20 18 18 19 18 17 16 15 14 13 13 12 12 12 12 13 13 13 13 13 13 14 14 14 14 14 14 13 12 12 13 13 14 14 14 13 13 13 12 13 13 13 14 14 14 15 14 13 15
22 21 22 24 24 26 27 26 26 25 26 26 26 27 27 26 26 26 28 28 27 25 23 22 20 20 19 20 21 21 21 19 18 18 18 19 19 18 18 18 17 16 15 14 13 13 13 13 13 12 12 13 13 12 13 13 13 14 15 14 13 14 14 13 12 13 13 13 14 14 13 13 12 13 13 13 13 13 13 13 15 15 14 13 15
22 21 22 23 23 25 26 26 26 25 25 26 26 27 27 26 26 25 26 26 25 23 22 21 20 20 20 21 21 21 20 20 19 19 20 19 18 18 17 16 16 15 15 15 14 14 13 13 12 12 12 13 12 12 13 13 13 15 15 14 13 13 14 13 13 14 13 14 15 14 11 12 12 12 12 13 13 13 13 14 14 14 14 13 15
22 21 22 23 21 23 25 27 26 25 25 25 26 26 26 26 25 24 25 24 22 21 21 21 21 21 21 21 20 20 20 20 20 20 20 20 19 18 17 15 15 15 16 16 15 15 14 13 13 13 13 13 12 13 13 13 14 16 15 14 13 14 14 14 15 15 14 15 14 13 11 11 11 11 11 12 12 13 13 13 13 13 13 13 14
21 20 21 21 21 22 25 27 26 26 25 25 25 25 26 25 25 24 24 23 21 21 21 22 23 22 21 21 20 20 19 19 19 20 21 21 20 18 17 15 14 15 16 16 16 15 14 14 13 13 13 13 13 13 14 13 14 15 15 14 13 14 14 15 15 14 15 13 11 11 11 10 10 11 10 11 12 12 12 13 13 13 12 13 14
20 20 20 21 21 23 26 27 27 27 26 26 25 25 25 25 24 23 23 23 22 22 23 23 22 20 19 19 19 18 17 18 19 20 21 21 20 19 17 15 14 15 16 15 14 15 15 14 13 13 13 13 13 14 14 14 14 13 14 13 12 13 13 13 13 14 14 11 10 10 10 9 10 10 10 10 11 11 12 13 13 13 12 12 14
19 19 20 21 20 23 26 26 27 27 26 26 25 25 25 25 23 22 22 22 23 23 23 22 19 18 18 18 18 17 16 18 19 20 20 20 19 19 18 16 14 14 14 13 14 15 15 14 14 13 13 14 14 14 13 13 12 11 11 10 10 11 12 12 12 12 11 10 10 9 9 10 9 10 9 9 9 10 11 12 12 13 12 11 13
19 19 21 22 21 24 26 26 26 27 26 26 25 25 25 24 23 21 21 21 21 21 21 19 18 18 17 17 16 16 17 17 18 19 19 18 17 17 17 16 15 15 14 13 13 14 15 14 14 14 14 14 14 14 13 12 10 10 10 7 7 9 10 11 11 10 9 8 9 8 9 9 9 9 9 9 9 10 11 11 11 12 11 11 14
18 19 21 21 22 24 25 26 26 26 26 26 25 25 25 25 23 22 20 19 19 19 19 18 18 18 17 16 15 15 16 18 19 18 17 17 17 16 15 16 16 15 14 13 12 12 13 13 13 14 14 14 14 13 12 10 9 9 8 6 6 6 7 9 9 7 8 8 8 8 8 8 8 9 9 9 10 10 11 11 11 11 10 10 13
18 20 20 20 22 24 24 24 24 24 23 24 24 24 24 24 24 23 21 20 19 19 18 18 18 18 17 16 16 15 14 16 17 16 16 17 16 15 14 14 14 14 13 12 11 11 11 12 12 12 12 13 13 12 11 9 7 7 6 6 5 4 4 6 7 6 7 7 7 8 7 8 9 9 9 9 9 9 10 10 11 10 9 10 12
19 21 21 22 23 24 23 21 22 24 23 23 24 24 24 23 24 23 22 21 20 19 18 18 18 17 16 16 15 15 14 14 14 15 16 16 15 13 12 13 12 12 12 11 11 11 11 11 12 11 11 11 11 11 10 9 7 7 6 5 5 4 4 5 6 6 7 7 7 8 8 8 8 9 9 9 9 9 9 10 10 9 10 10 11
21 21 22 23 23 23 21 20 21 23 23 22 23 24 23 23 22 22 22 21 20 19 18 18 18 17 16 16 14 14 14 14 14 14 15 14 13 12 11 11 11 11 11 10 11 11 11 12 12 11 11 11 10 10 8 7 7 6 5 5 4 5 5 5 6 6 7 7 7 8 8 8 8 10 9 8 8 8 9 9 9 8 10 10 9
20 20 21 22 21 21 20 20 20 22 23 22 22 22 22 21 21 21 20 20 19 19 18 18 17 16 15 15 14 13 13 14 14 13 13 13 12 11 10 10 11 10 10 9 10 10 11 12 12 12 12 11 10 8 7 6 7 6 4 3 3 5 6 7 7 7 7 7 7 8 7 7 8 10 9 8 8 8 8 8 8 7 8 9 8
20 20 21 21 21 19 18 17 19 21 22 22 22 21 20 20 19 19 19 18 18 18 18 17 16 15 15 15 14 13 13 13 14 12 12 12 11 10 10 10 10 10 9 9 10 11 12 13 13 13 12 11 9 8 7 7 7 6 4 2 2 5 7 8 7 7 7 7 7 8 7 8 9 9 8 8 8 8 7 7 7 7 8 9 8
19 20 20 20 19 16 15 15 17 18 19 20 20 20 20 19 19 18 17 17 18 18 17 17 16 15 14 13 13 13 13 13 13 12 12 12 11 11 11 11 11 10 10 9 11 13 14 14 13 13 12 11 9 8 7 7 7 7 4 2 2 5 7 8 7 7 6 6 7 7 7 7 10 9 7 8 8 7 7 7 7 7 8 8 7
18 19 18 18 17 15 14 15 16 17 17 18 18 18 18 19 18 17 17 16 17 17 16 16 16 15 14 13 12 13 13 13 12 11 11 11 11 11 11 11 11 10 10 10 11 14 14 14 13 12 11 10 9 8 8 7 7 7 5 3 3 5 7 7 6 6 5 6 6 7 6 8 10 8 7 7 7 7 6 7 8 7 7 7 6
17 17 17 17 17 16 14 15 16 16 16 17 18 17 17 18 17 17 16 16 16 16 16 15 15 15 15 14 13 13 12 11 11 10 10 10 10 10 10 10 11 10 11 11 11 13 13 12 11 11 10 10 9 9 8 7 6 6 6 5 4 5 7 7 6 5 5 5 5 6 6 9 10 7 7 6 7 8 7 7 7 7 6 5 6
16 16 17 17 17 16 15 15 16 16 16 16 18 17 17 17 16 16 16 16 16 15 15 15 15 15 15 14 13 12 11 10 10 10 9 9 9 9 10 10 10 10 10 11 11 11 10 9 9 8 9 9 9 9 8 8 7 7 6 6 6 6 8 8 7 5 4 4 4 5 6 8 8 6 6 6 7 7 6 6 7 6 5 5 5
16 16 16 16 16 16 15 14 15 15 15 15 16 17 17 17 16 16 16 17 16 15 15 15 15 15 14 14 13 12 11 11 10 10 9 9 9 9 10 10 10 9 9 9 10 9 8 7 6 6 6 7 7 8 8 7 7 7 7 6 6 7 9 10 7 5 4 3 4 4 5 7 7 6 6 6 7 7 6 6 6 6 5 5 4
17 16 15 15 15 14 14 15 15 13 13 14 15 16 17 17 16 16 16 16 16 15 15 15 15 14 14 14 13 12 12 11 10 10 9 9 8 9 9 9 9 9 8 8 8 8 7 6 5 5 5 5 5 5 5 6 6 7 8 7 6 7 9 10 8 5 4 3 3 3 4 6 6 5 5 6 6 6 7 5 5 6 5 5 3
16 15 14 14 14 13 14 14 14 12 11 13 14 15 16 16 16 15 15 16 15 15 14 14 14 13 13 13 12 11 11 10 10 9 9 9 8 8 7 7 8 8 8 7 7 7 6 5 4 4 5 4 4 4 3 3 4 6 7 8 7 8 9 10 8 6 4 3 3 2 3 5 5 5 5 5 5 4 6 5 4 5 5 3 2
16 15 14 15 14 14 15 14 13 15 14 14 15 15 15 15 15 15 15 15 15 14 13 13 12 12 11 11 10 10 10 9 8 8 8 8 8 8 7 6 6 6 7 6 6 6 5 4 3 3 4 4 3 3 2 2 3 4 6 7 7 7 8 9 8 7 6 4 4 3 2 4 5 5 4 5 5 4 6 5 4 4 5 3 3
17 16 13 13 13 15 20 16 12 15 15 15 14 14 15 14 14 14 14 14 14 13 12 12 11 10 10 10 9 9 9 8 8 8 8 8 8 8 7 7 6 6 6 5 5 5 4 3 2 3 3 4 3 3 2 2 2 3 4 6 7 6 6 8 9 8 7 5 5 4 3 3 5 6 5 5 5 4 5 5 5 4 4 4 3
21 21 16 15 15 17 21 17 12 14 14 14 13 13 14 13 14 14 14 14 13 12 12 11 10 9 10 9 8 8 8 8 8 8 8 8 8 8 7 7 7 6 5 5 4 4 3 2 2 2 3 4 3 3 3 2 2 2 3 6 7 6 5 6 8 9 8 6 5 5 4 3 4 6 5 5 4 4 5 5 5 5 4 4 3
26 28 28 27 22 19 20 16 13 14 14 13 12 12 11 12 15 14 14 13 12 12 11 11 10 9 9 8 8 8 8 8 7 8 7 8 8 8 8 7 7 6 5 4 4 4 3 2 2 2 3 4 3 3 3 2 3 3 4 6 8 8 6 5 7 8 8 6 6 5 5 4 4 4 5 5 4 4 5 5 5 5 4 4 4
27 25 26 27 22 17 17 16 14 14 15 13 12 12 11 12 13 13 12 12 12 12 11 10 8 8 7 7 7 8 8 8 7 8 7 7 8 8 8 7 7 6 6 5 3 4 4 3 2 2 3 4 3 3 3 2 3 4 5 7 9 10 8 7 7 8 8 7 6 6 6 5 4 4 5 6 5 4 5 5 5 5 4 4 4
22 17 18 20 16 15 17 16 15 15 15 14 12 11 11 11 11 12 12 11 11 11 10 8 7 7 6 6 6 6 7 7 7 8 8 7 7 7 7 7 7 6 6 5 4 4 4 3 2 2 3 3 3 4 3 2 3 4 6 8 9 9 9 9 7 7 8 8 7 7 6 6 5 4 5 6 5 5 5 5 5 5 4 4 4
16 14 18 18 14 15 15 14 14 14 14 15 12 11 11 11 11 12 11 9 11 11 9 9 8 7 6 6 6 5 5 6 7 7 7 6 6 6 6 7 7 7 6 5 5 5 5 3 3 2 1 2 2 3 3 2 2 3 5 7 8 8 9 9 8 8 9 8 7 7 7 6 5 4 5 5 5 5 5 5 5 5 4 4 4
14 14 16 15 14 14 14 13 13 12 12 12 12 12 11 10 11 12 9 9 11 11 10 10 9 8 6 6 6 5 6 7 7 6 5 5 5 5 6 6 7 7 6 6 6 6 5 4 3 3 2 2 2 3 3 2 2 2 3 5 7 7 7 8 8 8 8 8 8 7 7 7 5 5 5 4 5 6 5 5 5 5 5 4 4
15 16 14 12 13 14 12 12 12 11 11 11 11 12 11 10 10 12 10 10 12 11 11 10 8 7 6 7 6 7 7 7 6 5 5 5 5 5 5 6 6 7 7 7 7 5 4 4 3 3 4 6 5 5 4 3 2 2 2 4 6 6 5 6 7 7 7 7 7 7 7 7 6 5 5 4 5 6 6 5 6 5 5 4 4
14 15 14 13 13 12 12 11 11 11 11 11 11 11 11 9 9 11 10 10 11 10 9 7 6 6 6 6 6 7 8 7 6 6 7 6 5 6 6 6 6 8 8 7 6 4 3 3 3 2 4 6 6 5 4 3 2 2 2 2 4 6 6 6 6 6 7 6 6 6 7 7 6 6 5 5 5 6 6 5 5 5 6 5 5
12 14 15 14 13 12 11 11 11 12 11 11 10 10 9 8 9 9 9 9 8 7 6 5 4 4 4 4 5 6 6 6 7 6 6 5 5 6 6 6 6 6 6 6 5 4 3 3 3 3 3 4 4 3 3 3 3 3 3 2 3 5 7 8 7 6 6 6 6 6 6 7 7 6 6 5 5 5 6 5 4 5 6 6 6
13 14 15 14 15 13 11 11 11 12 11 10 9 9 9 10 10 8 7 6 5 4 4 4 4 4 4 3 3 3 4 5 5 5 4 5 6 6 5 5 6 6 6 5 4 3 3 3 3 3 3 3 3 2 2 2 3 3 3 3 4 4 6 8 8 9 8 7 7 6 7 7 7 6 6 6 5 5 6 5 4 4 5 5 5
13 13 14 14 15 14 12 11 12 13 11 10 10 11 11 10 9 8 7 5 5 5 5 5 4 3 3 2 2 2 3 4 3 3 4 4 5 5 3 4 5 5 5 4 3 2 3 3 3 2 2 2 3 2 1 2 2 3 4 4 4 4 4 6 7 9 10 9 9 8 7 7 7 7 5 5 6 5 5 5 5 4 4 4 4
13 14 14 14 16 15 14 13 13 13 11 10 11 12 11 10 8 8 7 6 6 6 5 5 4 4 3 2 2 3 3 3 2 2 3 4 4 3 2 2 3 4 4 3 2 3 4 4 3 3 2 1 1 1 1 2 2 3 4 4 4 5 5 5 6 8 10 10 11 10 9 9 8 7 6 5 5 6 5 5 5 5 5 4 4
15 14 13 14 16 15 14 14 14 14 13 13 13 12 11 9 8 8 7 8 8 7 6 5 5 4 4 4 3 3 2 2 2 2 1 2 3 2 1 1 2 2 2 2 2 4 5 5 3 2 2 1 1 1 2 2 3 3 3 3 4 4 5 5 6 7 8 10 11 11 10 10 9 8 7 6 6 6 5 6 6 6 6 5 5
16 14 12 15 16 15 14 14 15 15 15 14 12 11 10 9 9 9 8 8 8 8 7 6 6 6 6 6 5 4 3 3 2 3 2 1 1 2 1 1 1 0 0 0 1 3 4 5 3 2 1 1 2 4 5 4 4 4 4 3 3 4 4 5 5 5 6 8 9 10 10 10 10 9 9 9 8 6 4 5 5 5 6 6 5
16 14 15 17 16 16 16 15 16 16 15 13 12 11 10 9 9 9 8 8 8 9 8 8 8 8 7 6 6 5 5 5 5 5 4 3 3 2 1 1 1 2 2 1 1 2 2 3 3 3 2 1 3 6 7 7 6 5 5 5 5 4 4 4 4 4 4 5 5 7 8 9 9 9 9 8 8 7 5 4 4 4 4 6 6
15 15 16 17 17 17 17 16 15 16 14 13 13 12 11 11 10 10 9 10 10 9 9 10 9 8 7 7 7 7 7 7 7 7 6 5 4 3 2 1 1 2 1 0 1 1 1 1 2 3 4 3 5 5 6 7 6 6 5 4 5 5 5 4 4 3 3 3 3 3 3 4 5 5 6 4 2 3 5 7 7 5 4 5 5
17 17 16 15 16 17 17 17 16 15 14 14 13 12 12 13 12 12 12 13 11 9 10 10 9 8 7 7 7 8 7 7 7 7 7 6 6 5 4 3 2 1 1 1 1 2 3 2 1 2 4 4 5 5 5 8 7 6 5 3 4 6 6 6 5 5 4 4 3 1 1 2 2 3 2 1 2 3 0 5 7 6 5 5 5
16 16 14 12 13 14 14 16 17 16 15 14 13 12 12 12 11 13 14 14 12 10 11 10 8 8 7 7 6 6 6 6 6 7 7 6 6 5 5 5 4 3 3 2 2 1 2 2 2 2 4 4 4 3 3 7 7 5 4 4 3 3 5 6 7 8 8 6 5 3 2 2 1 1 1 1 2 3 2 2 4 5 6 8 10
12 12 13 9 9 11 14 18 18 17 16 15 14 13 12 12 11 13 14 13 13 12 11 9 8 6 6 7 6 5 5 5 6 6 5 5 5 5 5 5 5 5 4 3 3 3 2 2 1 2 3 4 4 2 2 5 6 4 3 3 2 3 3 3 4 6 7 7 5 4 4 3 3 3 3 2 3 4 4 3 3 5 6 8 11
7 8 8 5 5 5 7 11 13 15 16 15 15 15 14 14 14 14 13 12 12 11 10 9 7 6 6 7 7 6 7 7 7 6 4 4 4 4 4 4 4 4 4 4 4 5 4 3 3 3 2 3 5 4 3 2 4 5 4 2 1 3 1 1 2 3 3 2 2 2 3 3 3 2 2 3 3 4 3 1 2 4 4 4 6
9 9 7 6 7 7 5 5 5 9 13 15 16 17 17 16 17 16 13 12 11 10 9 9 8 8 9 9 8 8 8 7 7 5 4 3 3 3 3 3 3 4 5 5 6 5 5 4 4 4 3 2 4 5 4 2 1 3 4 3 2 2 1 1 2 2 2 1 2 2 2 4 4 5 5 4 4 3 2 1 1 2 1 1 2
14 12 10 10 12 14 13 11 10 11 12 14 16 17 18 17 17 16 13 12 11 10 10 9 9 10 11 11 10 9 8 7 6 5 4 3 3 3 2 2 2 2 4 4 5 6 6 6 5 5 5 4 3 2 3 3 2 2 2 2 1 3 2 0 1 1 1 2 4 5 7 6 5 6 7 6 5 4 3 3 3 4 3 3 2
16 14 14 15 15 16 15 15 17 15 12 14 16 17 17 17 17 16 13 12 11 11 11 9 10 11 12 12 11 10 8 7 6 5 4 4 3 3 3 3 2 2 3 4 4 6 6 6 6 6 5 4 4 3 2 2 3 3 2 2 2 3 3 1 2 2 2 2 3 5 9 11 9 9 8 6 6 6 5 4 4 3 3 4 3
14 14 15 16 15 14 15 17 18 15 12 14 17 17 17 16 17 16 13 12 11 11 11 10 11 12 12 12 10 9 8 7 6 6 6 5 4 4 4 3 3 3 4 4 4 5 5 5 6 7 6 6 6 4 4 3 3 3 2 2 1 1 2 3 2 2 2 2 3 3 7 12 14 13 11 10 10 9 8 7 6 4 2 2 3
12 15 16 16 15 16 18 19 18 16 15 16 18 18 17 16 17 15 14 14 13 12 12 12 13 13 12 11 10 8 7 6 7 7 6 5 5 5 4 3 3 4 4 4 5 5 5 5 6 7 8 9 8 6 5 5 4 3 2 2 2 2 3 4 3 5 4 4 4 4 6 10 11 12 14 18 17 15 15 14 12 10 7 3 2
17 18 18 17 17 20 21 19 18 17 17 18 19 19 19 18 16 15 14 15 15 14 14 14 14 13 12 11 9 7 7 7 8 8 7 6 6 6 5 5 5 4 4 4 4 4 5 5 6 7 7 8 8 7 7 7 6 6 6 6 6 5 4 4 3 4 5 5 6 6 8 11 12 12 14 18 18 17 17 17 17 16 14 11 7
Wind_Direction
162 155 156 163 159 155 153 150 147 141 140 140 139 136 137 138 140 143 145 145 143 141 138 137 136 138 139 140 140 140 139 136 136 133 128 122 119 122 126 128 126 124 125 125 124 123 121 117 112 112 112 111 111 112 113 113 112 111 114 115 116 115 110 107 103 102 101 100 98 99 98 96 94 94 95 96 94 88 86 83 76 71 68 64 61
156 154 156 163 158 155 153 149 147 142 141 141 141 136 135 137 139 142 143 143 141 140 138 139 138 139 140 141 142 140 136 133 133 129 126 120 119 121 124 127 127 126 124 123 122 122 119 117 115 113 114 113 112 114 115 114 114 115 116 114 117 116 109 107 104 101 99 101 104 104 100 98 95 92 92 96 93 83 81 79 76 73 69 63 56
150 153 155 160 157 156 153 150 148 144 143 142 142 140 137 135 138 141 143 143 141 142 141 141 140 141 143 143 143 139 135 133 131 128 124 118 117 118 121 124 125 127 124 124 125 121 117 118 119 117 116 116 117 117 118 119 118 119 118 112 112 114 114 114 107 102 99 102 106 102 96 95 93 89 89 92 92 84 81 78 77 76 72 67 61
147 151 153 157 156 156 154 151 149 145 144 143 143 142 142 139 137 140 143 145 144 146 146 146 145 145 144 143 143 140 138 135 131 127 121 116 118 121 123 124 125 126 125 126 124 120 119 122 121 120 120 120 121 122 124 124 123 123 120 113 111 119 123 120 112 109 109 111 107 99 94 93 91 90 91 90 89 85 81 78 77 77 74 70 67
146 148 151 154 153 157 156 152 149 146 144 143 143 143 144 143 141 140 143 146 147 148 148 148 146 144 143 144 143 140 137 131 127 123 122 122 124 125 124 126 126 125 127 127 123 121 121 123 122 121 122 124 123 125 130 129 127 123 117 112 111 119 122 118 113 112 113 112 104 97 95 94 91 90 93 90 87 84 80 76 75 75 75 67 66
145 147 150 151 153 157 156 154 151 148 144 142 142 142 143 143 143 141 144 146 144 144 144 144 143 143 144 144 140 135 129 124 119 118 121 124 125 124 126 129 129 129 128 125 122 120 121 124 124 124 126 127 128 130 133 131 126 120 114 112 112 115 118 116 111 110 110 104 96 93 93 93 93 91 90 89 88 86 83 79 76 74 73 67 66
143 146 149 149 152 157 158 156 153 150 145 143 142 141 141 141 141 141 143 144 142 141 142 144 144 144 142 138 134 130 126 123 119 116 117 120 124 124 125 124 129 133 125 117 115 117 121 124 124 127 131 130 132 136 134 127 122 115 110 109 109 111 115 115 110 108 107 100 92 91 90 89 92 94 92 91 89 86 84 80 78 73 71 70 69
142 145 147 147 152 159 159 156 153 151 147 145 144 142 140 140 140 139 139 141 142 144 145 145 143 139 136 135 133 131 133 132 126 122 119 120 122 122 123 119 120 121 115 114 116 121 122 124 128 129 132 133 137 141 135 126 118 112 108 105 105 109 111 113 111 108 102 95 91 89 88 89 92 95 96 94 91 89 86 81 77 73 71 72 72
143 144 146 146 153 161 159 157 154 151 149 145 144 143 141 140 139 138 137 138 143 145 143 140 138 136 136 137 134 135 138 134 128 126 123 120 121 122 125 125 121 116 114 113 115 123 125 127 133 131 132 134 137 143 142 135 125 118 118 111 105 107 109 113 114 107 97 91 91 89 91 92 92 95 98 98 95 94 91 85 78 76 73 68 73
142 143 146 146 154 162 159 158 156 152 150 146 145 144 141 140 139 138 137 137 140 140 138 137 138 137 137 137 134 134 136 134 130 128 125 122 124 126 124 122 121 118 115 111 109 117 123 127 133 134 137 138 140 144 148 149 141 132 133 128 114 109 108 112 114 109 102 97 92 92 102 99 93 98 102 102 97 93 93 92 85 81 78 67 70
142 144 145 148 156 160 156 157 156 152 150 148 145 143 142 142 141 140 138 136 134 135 137 140 141 139 139 139 134 132 133 135 135 131 128 126 130 132 127 122 118 115 112 110 113 119 124 129 136 140 141 145 147 148 149 152 149 138 135 136 131 120 114 113 110 112 111 104 95 99 106 97 93 102 106 103 97 94 93 94 89 83 83 72 71
143 144 144 148 154 154 152 153 153 151 148 147 145 143 143 144 143 142 139 137 135 138 142 144 143 142 142 140 134 131 131 134 136 136 133 132 134 132 130 126 116 112 109 107 115 125 130 133 139 144 143 145 148 153 154 151 147 139 140 142 139 135 132 121 117 124 120 109 100 104 104 95 97 106 108 105 100 98 97 96 92 86 83 75 75
142 144 145 146 150 149 147 146 149 150 148 148 148 149 148 147 146 144 142 140 140 143 146 148 148 146 144 141 137 133 134 137 140 140 137 136 134 130 128 125 114 109 108 105 111 123 133 136 139 145 145 147 151 156 159 157 149 143 149 145 143 151 155 143 138 140 130 119 107 109 108 101 108 114 111 107 106 104 100 100 98 94 89 82 78
141 144 145 146 148 146 144 144 149 152 152 152 151 151 151 148 146 145 144 144 145 147 150 153 152 150 147 145 141 140 143 146 146 142 140 138 133 131 128 123 116 111 110 107 112 122 133 141 145 150 151 157 162 162 163 163 151 144 147 139 140 152 159 156 152 150 141 130 116 115 110 106 119 123 117 111 110 108 105 105 103 99 97 94 81
139 142 141 144 144 143 144 147 153 155 155 156 153 152 150 147 147 147 147 147 147 149 153 153 154 153 151 150 149 150 150 149 148 143 142 141 137 136 130 125 122 117 115 112 116 127 136 145 150 151 153 157 161 161 160 152 143 143 145 138 139 152 160 161 158 154 148 137 126 121 112 113 124 124 122 120 116 113 113 112 108 103 99 97 87
137 139 139 141 142 143 145 147 151 153 155 156 156 155 152 152 152 151 150 149 147 149 154 153 154 154 154 157 156 154 151 147 146 144 143 143 142 141 135 131 129 124 122 118 117 125 133 140 143 144 146 149 150 150 148 143 139 142 150 152 146 154 159 161 159 155 150 143 136 126 117 117 119 119 125 125 124 122 119 114 107 102 99 98 90
136 138 138 140 141 141 144 146 149 152 155 157 158 157 155 156 154 153 151 147 144 148 154 153 155 154 156 162 158 152 150 148 147 145 144 144 146 148 145 140 138 132 129 123 119 124 128 132 135 138 141 142 142 142 141 142 141 141 146 153 157 161 160 160 157 154 152 146 141 129 121 125 125 127 131 128 130 126 120 116 110 106 103 103 97
135 135 135 139 141 140 143 150 154 156 155 156 160 159 156 155 153 152 148 142 143 148 154 157 159 156 155 158 153 151 151 149 147 146 146 146 150 152 154 152 147 138 132 125 121 127 127 125 129 134 138 138 138 138 139 142 143 140 141 149 167 172 168 164 158 156 152 144 141 131 127 136 135 136 136 134 135 128 123 124 121 116 109 105 101
131 131 134 139 142 142 146 153 157 156 154 155 158 158 155 153 153 151 146 141 143 148 152 156 156 153 153 152 150 150 150 147 146 149 147 144 144 144 147 151 149 138 132 128 124 130 129 125 126 129 132 134 136 138 139 140 142 140 139 153 174 181 176 173 168 162 154 148 144 136 135 136 136 139 139 136 135 132 129 130 129 122 112 103 102
128 131 137 139 141 144 146 152 156 155 153 154 153 154 153 153 154 149 146 143 143 145 146 146 145 146 149 150 151 151 149 150 150 150 147 141 137 136 136 138 140 134 130 130 127 132 135 133 130 131 131 132 137 141 141 141 143 143 140 155 179 187 181 180 181 170 160 159 146 142 142 135 135 140 140 136 134 136 134 131 131 124 117 110 108
129 133 137 138 139 142 145 150 155 154 152 150 147 149 151 152 151 147 144 142 140 140 141 141 141 145 151 155 158 155 152 154 154 150 145 139 132 131 131 130 132 131 131 133 132 133 139 142 140 141 142 137 135 138 139 138 142 146 143 149 172 185 181 179 180 177 173 167 153 153 144 135 136 139 141 142 141 144 138 133 137 132 124 118 119
136 139 139 140 139 145 150 148 149 150 148 147 146 148 151 149 146 144 142 139 139 140 142 144 147 151 155 159 159 157 156 156 153 151 145 136 130 127 127 127 128 130 132 134 134 132 135 143 151 154 153 149 137 133 133 128 134 145 147 140 146 166 174 175 176 179 184 178 171 174 146 133 136 143 148 148 150 148 141 143 149 141 136 131 129
139 137 137 141 144 151 154 149 143 145 151 153 153 151 150 148 144 143 140 140 142 143 146 149 153 156 157 157 158 158 156 152 150 149 142 135 132 128 127 128 128 129 128 128 129 130 135 146 159 157 157 161 147 134 124 109 117 136 148 140 136 151 166 172 174 179 190 189 189 198 161 137 134 150 158 154 156 146 142 151 161 150 151 157 149
136 132 137 147 153 155 157 163 154 152 161 162 159 154 150 148 147 146 144 146 148 148 150 153 157 159 160 161 161 162 157 150 148 145 140 138 136 132 133 134 134 135 132 131 136 141 146 152 155 148 155 162 150 135 120 103 108 127 148 150 141 147 165 177 181 187 196 198 203 219 186 152 140 152 168 164 163 152 147 153 160 159 158 162 151
126 127 136 150 160 159 163 177 169 158 166 165 160 156 153 153 153 152 150 152 154 155 158 161 163 166 170 170 169 169 164 159 157 153 151 149 144 144 150 150 145 146 144 142 145 147 152 159 155 147 163 164 152 146 127 99 104 132 154 164 154 141 158 181 188 192 201 208 216 227 209 185 152 153 175 177 174 164 159 160 161 170 169 160 157
128 131 142 161 171 168 169 179 174 165 169 166 161 158 157 157 158 160 159 158 159 161 163 165 167 171 176 178 178 180 175 168 164 162 162 159 156 161 167 163 158 155 150 150 149 147 153 161 160 162 175 171 161 155 140 111 100 126 160 175 170 153 147 171 186 189 196 206 219 231 227 216 171 156 177 188 186 174 169 173 168 174 175 163 173
149 151 158 172 178 174 171 174 171 169 170 166 162 162 162 162 164 166 165 163 164 166 165 165 167 170 174 180 184 188 184 175 171 167 163 167 171 178 180 175 169 160 151 155 157 150 147 152 171 180 177 170 163 146 127 117 112 117 152 178 183 175 163 164 177 182 186 196 210 226 232 227 203 165 177 194 194 183 181 184 177 175 171 166 181
165 164 166 174 179 175 172 171 169 172 172 167 164 169 169 165 167 169 170 168 168 171 169 168 169 170 174 180 184 189 189 183 177 167 163 175 185 185 185 183 175 165 161 165 170 159 146 142 159 172 166 164 164 147 121 110 117 114 142 178 190 185 180 178 174 173 180 192 206 222 231 229 220 183 179 194 198 194 192 193 189 182 174 172 176
169 168 168 175 181 177 175 174 170 171 174 172 170 173 171 168 169 171 175 175 174 174 173 172 172 175 181 186 190 192 193 191 184 175 174 186 196 192 190 190 179 177 178 173 176 177 167 148 132 150 161 162 167 162 140 111 111 108 133 174 193 188 184 187 183 177 179 188 206 223 231 230 225 198 181 189 200 200 198 197 199 193 187 189 182
165 169 171 177 184 180 179 177 172 171 173 175 177 178 174 175 177 175 176 177 175 174 175 177 179 183 188 195 203 201 199 202 196 186 184 192 205 199 194 195 187 186 189 180 177 181 186 176 152 160 163 159 180 185 171 131 116 109 130 166 189 190 187 190 187 186 186 190 206 221 232 235 230 211 191 189 195 196 202 204 205 206 201 201 196
165 172 174 182 187 183 180 174 172 172 170 174 181 182 178 179 179 175 177 177 175 175 179 183 186 188 193 205 210 207 211 215 206 190 189 207 214 203 198 200 197 193 191 186 183 178 183 191 189 188 190 213 236 225 208 182 147 126 132 162 185 194 194 194 191 190 191 196 208 219 234 240 234 220 205 198 185 184 199 210 207 210 211 209 205
176 178 178 184 186 184 183 176 173 171 170 174 181 183 180 180 179 179 182 178 178 180 183 188 192 195 204 213 212 214 224 228 220 202 201 214 218 213 208 206 203 196 192 192 193 190 192 203 212 204 202 216 241 252 237 221 200 178 155 168 188 200 198 193 195 198 197 200 208 217 230 239 243 233 217 206 183 179 190 204 208 212 218 223 220
180 183 183 180 179 184 186 183 177 175 177 177 180 182 180 180 181 184 185 179 181 185 190 198 201 201 207 212 213 223 234 237 228 213 211 216 213 214 212 212 206 196 197 199 200 206 211 225 241 237 217 220 238 254 247 236 228 216 193 180 193 206 208 201 202 207 204 201 209 221 229 235 242 242 232 219 194 184 191 199 203 207 217 224 224
176 182 185 180 177 182 187 188 185 184 185 181 180 180 179 185 184 184 185 181 182 187 197 203 191 190 192 197 216 231 234 235 231 219 221 222 206 204 207 213 209 199 205 211 215 224 230 243 248 242 229 227 237 249 256 247 237 225 213 204 201 209 212 213 214 213 212 207 211 223 232 237 239 241 239 234 219 197 200 208 203 202 211 219 223
175 179 185 185 182 182 187 190 189 191 191 185 182 183 188 192 184 180 177 171 165 162 168 160 161 175 174 185 214 231 232 238 242 222 216 215 203 203 206 211 208 205 217 227 232 242 244 248 246 236 229 237 242 249 264 247 237 230 224 218 211 212 211 215 216 212 212 214 219 225 229 238 241 242 238 230 231 219 211 216 215 207 206 214 222
176 177 185 189 187 185 188 188 188 192 192 186 186 192 192 185 175 168 160 147 135 135 137 137 149 154 140 169 197 214 235 247 255 227 214 218 212 214 219 215 205 200 211 223 232 242 245 244 239 229 218 233 239 242 257 241 233 224 216 211 213 220 216 217 218 215 215 217 224 229 226 231 235 242 244 227 228 237 235 225 222 223 211 214 220
179 180 186 187 185 185 187 188 189 189 188 188 191 189 181 170 161 157 149 141 139 138 137 137 138 128 108 111 155 183 212 223 231 215 223 241 239 236 236 205 192 185 187 199 224 243 246 244 239 233 216 219 234 236 238 222 213 212 208 204 208 216 217 220 223 225 225 224 231 236 232 231 232 240 255 246 231 237 249 242 233 235 229 223 227
183 186 187 182 181 182 184 189 191 188 188 189 186 177 169 162 157 151 143 141 141 139 136 136 134 124 114 114 125 142 157 175 184 159 183 249 245 228 143 141 165 163 169 194 229 245 249 250 241 243 242 219 245 245 235 217 198 201 196 187 193 202 210 215 222 231 236 235 239 244 243 240 236 236 246 253 245 238 245 248 242 240 243 241 237
187 188 182 178 180 179 181 189 192 189 189 186 177 169 165 158 151 146 142 141 139 135 133 132 129 119 113 112 108 110 113 122 129 120 125 157 174 165 152 180 207 227 300 257 234 232 240 246 241 246 247 205 231 231 223 214 202 198 192 185 183 191 202 210 220 234 243 244 243 244 247 247 242 236 240 247 249 245 239 244 244 238 247 254 248
185 182 175 176 176 175 180 188 190 188 184 177 171 167 161 154 151 147 141 142 139 134 132 129 123 116 113 106 97 94 90 99 110 111 111 114 119 132 151 214 273 287 292 294 247 222 217 230 224 213 189 177 238 226 206 202 202 199 199 203 203 197 196 200 214 234 247 253 252 249 247 249 249 244 245 248 243 241 238 250 268 263 266 271 267
186 183 176 177 171 169 176 179 183 187 181 174 175 172 164 159 158 155 148 145 142 136 133 130 125 120 112 102 94 89 87 96 103 102 99 90 89 87 62 36 335 308 300 227 218 176 115 146 187 179 159 172 242 235 198 195 198 200 201 210 219 220 218 208 205 220 243 249 247 254 254 252 250 237 236 236 226 250 251 252 264 277 282 280 277
191 187 182 181 170 164 171 176 183 187 183 181 182 178 172 168 161 158 152 146 145 142 138 134 128 122 113 108 98 88 88 98 103 101 94 81 73 65 55 52 42 41 66 82 180 150 124 124 170 180 154 174 238 255 205 200 207 209 206 213 225 231 237 233 223 216 221 229 221 211 205 182 169 171 190 174 82 57 295 248 257 266 275 279 281
192 188 185 180 166 161 167 178 185 185 184 183 181 179 176 171 161 156 152 147 148 147 140 132 123 120 121 124 114 95 94 106 114 108 91 77 66 57 54 53 49 53 64 64 72 112 131 138 158 183 156 164 224 262 203 208 220 216 212 224 229 233 233 229 225 223 222 226 226 231 231 201 197 244 271 11 49 46 26 317 287 272 264 261 263
185 181 185 179 165 172 180 185 186 186 186 179 176 180 174 166 159 156 153 149 148 146 138 130 124 122 126 133 133 121 112 118 124 112 90 78 68 58 51 44 40 48 58 63 70 75 83 106 113 144 156 168 192 195 174 207 221 210 217 236 227 238 235 212 217 226 228 231 234 244 249 252 284 297 305 334 328 319 323 322 311 301 283 261 256
162 158 167 164 153 166 175 175 179 184 187 179 175 179 171 162 159 155 153 148 146 146 139 132 129 122 120 127 129 124 119 123 128 117 97 82 66 54 44 33 30 47 60 62 69 73 73 79 79 86 130 182 181 172 165 201 220 210 221 252 241 251 256 141 216 220 218 235 240 239 254 280 316 334 6 17 337 313 315 294 291 304 294 258 247
125 121 128 148 172 186 171 135 157 185 188 185 180 178 171 166 166 162 158 152 147 148 145 137 134 126 122 123 121 120 120 123 129 120 102 83 56 37 24 21 28 54 67 62 62 67 69 69 72 76 82 147 163 165 165 156 208 205 220 249 290 313 357 120 233 203 144 89 52 65 55 34 33 45 56 61 50 37 47 67 19 352 305 250 249
113 124 144 166 182 193 187 173 187 198 190 185 180 175 173 175 177 173 168 162 153 153 153 144 137 131 126 123 119 119 121 120 123 117 103 88 53 29 13 20 40 62 68 59 58 63 63 61 65 74 77 89 110 127 153 175 204 192 211 236 307 356 17 26 271 261 173 110 71 67 63 53 60 73 70 71 73 68 64 57 40 22 357 343 355
122 142 161 174 182 188 185 180 187 192 190 183 179 181 183 185 182 174 168 166 159 156 155 146 140 137 130 127 124 122 123 121 120 117 111 100 66 37 18 18 29 49 55 51 56 61 58 59 68 77 81 85 85 75 102 170 204 192 211 244 288 339 15 42 246 250 230 141 101 83 75 68 73 87 88 80 72 67 56 43 38 21 352 354 21
140 160 166 174 182 186 185 183 182 185 196 192 185 191 195 189 180 169 163 165 164 160 155 148 145 142 136 130 128 126 125 124 123 123 121 106 72 43 22 13 21 36 46 47 52 56 58 66 69 72 78 82 80 76 84 102 137 153 181 213 238 294 81 104 150 143 111 120 128 110 93 83 74 73 84 89 81 72 67 59 53 53 29 359 25
169 174 169 172 181 184 182 181 181 185 198 197 190 195 197 189 178 167 164 166 166 162 155 151 149 146 142 134 130 128 125 128 131 129 123 103 71 47 36 37 36 31 40 45 48 53 58 67 69 74 78 74 70 70 84 100 110 118 120 113 111 131 129 116 118 120 104 99 112 107 99 97 84 70 74 83 82 76 76 75 72 70 69 69 75
175 169 168 176 183 181 178 180 185 187 195 197 194 195 194 190 181 172 170 169 168 166 160 156 155 152 147 140 134 131 131 137 140 134 123 98 71 61 66 74 65 48 44 43 51 62 65 68 72 76 72 62 62 69 82 95 99 101 101 95 90 90 97 89 88 127 130 123 124 114 101 102 100 90 81 80 77 73 72 71 71 74 76 77 82
Height
781 783 786 787 789 790 791 792 794 795 796 797 798 799 800 802 803 805 807 808 810 811 813 814 815 816 817 818 819 819 819 820 821 821 822 823 823 824 825 826 827 828 829 830 831 832 832 832 833 833 833 834 834 835 835 835 835 835 835 835 835 835 835 835 835 835 835 835 836 836 836 836 836 836 835 835 835 835 835 834 835 834 834 833 833
780 783 786 787 789 790 792 793 794 795 797 798 799 800 801 803 804 806 808 810 812 813 814 815 816 817 818 819 820 820 820 821 822 822 823 824 825 826 827 827 828 829 829 831 832 832 833 833 834 834 835 835 835 836 836 836 836 836 836 836 836 836 836 836 836 836 836 836 837 837 837 837 837 837 837 836 836 836 836 836 836 835 835 835 834
780 784 785 787 789 790 792 793 794 796 798 799 800 801 802 804 805 807 809 811 813 814 815 816 817 818 819 820 821 821 822 823 823 824 824 825 826 828 828 829 829 830 830 831 832 832 833 834 835 835 836 836 837 837 837 837 837 837 837 837 837 837 837 837 837 837 837 837 837 838 838 838 838 838 838 838 838 838 837 837 837 837 836 836 835
781 784 786 788 789 791 792 794 795 797 798 800 801 802 803 804 806 808 810 812 813 815 816 817 818 819 820 821 821 822 823 824 825 825 825 826 827 829 830 830 830 831 831 832 833 833 834 835 835 836 837 837 838 838 838 838 838 838 837 838 838 838 838 838 837 837 838 838 838 839 840 840 840 840 840 839 839 839 839 838 838 838 837 837 836
782 784 786 788 790 791 793 794 796 797 799 801 802 803 804 805 807 808 810 812 814 816 817 818 819 820 821 822 822 823 824 825 826 826 827 827 828 829 830 831 831 831 832 833 833 833 834 835 836 837 837 838 838 838 839 839 839 838 838 838 838 839 838 838 838 838 838 839 839 840 842 842 842 842 841 841 841 840 840 840 840 839 839 838 837
782 784 786 788 791 792 793 795 796 798 799 801 803 804 805 807 808 809 811 813 814 816 818 819 820 821 822 823 824 824 825 826 827 828 828 828 829 830 830 831 831 832 832 833 833 834 835 836 837 837 838 838 839 839 840 840 839 839 839 839 839 839 839 839 839 839 839 840 841 842 843 843 843 843 843 842 842 842 842 842 841 841 840 839 839
782 785 786 788 791 792 794 795 797 798 800 801 803 804 806 808 809 811 812 813 815 817 818 820 821 822 823 824 825 826 826 827 828 828 828 829 830 830 831 831 832 832 833 833 834 834 835 836 837 838 838 839 839 840 840 840 840 840 840 840 840 840 840 840 840 840 840 841 842 843 844 844 844 844 844 844 843 843 843 843 842 842 841 841 840
783 785 787 789 791 793 794 795 797 798 800 801 803 804 806 808 810 812 813 814 816 818 819 821 822 823 824 825 825 826 827 827 828 829 829 829 830 831 831 831 832 833 833 834 834 835 836 837 837 838 838 839 840 841 841 841 841 841 841 841 841 841 841 841 841 841 841 843 843 844 845 845 845 845 845 845 845 844 844 844 844 843 843 842 841
784 786 787 789 791 793 794 796 798 799 800 802 803 805 806 808 810 812 813 815 817 819 820 822 823 824 825 826 826 827 827 828 829 829 830 830 831 831 832 832 833 834 834 834 835 836 837 837 838 838 839 840 840 841 842 842 842 842 842 842 842 842 842 842 841 842 843 844 844 845 845 846 846 846 846 846 846 845 845 845 845 845 844 843 842
784 786 788 790 792 793 795 797 798 800 801 803 804 806 807 809 811 813 815 816 817 820 822 823 824 825 826 827 827 828 828 829 830 830 830 831 832 832 833 833 834 835 835 835 836 837 837 838 838 839 840 840 841 841 842 842 842 842 843 843 843 843 843 842 842 843 844 844 845 845 846 846 847 847 847 847 847 846 846 846 846 846 845 844 843
785 787 789 790 792 794 796 797 799 801 802 804 806 807 808 809 811 813 815 817 818 820 823 824 825 826 827 828 828 829 829 830 830 831 831 832 832 833 834 835 835 835 836 836 837 837 838 839 839 840 840 840 841 841 842 842 842 843 843 843 844 844 843 843 843 844 844 845 846 846 846 847 848 848 848 848 848 848 847 847 847 846 846 845 845
786 787 790 791 793 795 797 799 800 802 804 806 807 809 810 810 811 813 815 817 818 821 823 825 826 827 828 829 829 830 830 831 831 831 832 832 833 834 834 836 836 836 837 837 837 838 839 839 840 840 841 841 841 842 843 843 843 843 844 844 844 844 844 844 845 845 845 846 846 846 847 847 848 848 849 849 849 849 849 848 848 847 847 846 846
786 789 790 792 794 796 797 799 801 803 805 806 808 809 811 811 812 813 815 817 818 821 823 825 827 828 829 830 830 831 831 831 832 832 832 833 834 835 836 836 837 837 837 838 838 839 839 840 841 841 841 842 842 843 843 844 844 844 844 845 845 845 844 844 845 845 846 846 847 847 847 848 849 849 849 850 850 850 850 849 849 848 848 847 847
787 789 791 793 795 797 798 800 801 803 805 807 808 809 811 812 813 814 815 816 818 820 823 826 828 829 830 830 831 830 831 831 832 833 833 834 834 836 836 837 837 838 838 838 839 839 840 840 841 841 842 842 843 843 844 844 844 844 845 845 845 845 845 845 845 846 846 846 847 847 848 848 849 849 850 850 850 850 850 850 850 849 849 848 848
788 790 793 795 796 798 800 801 802 803 805 807 808 810 811 813 814 815 815 816 818 820 824 826 828 829 830 830 831 830 831 831 832 833 834 834 835 836 837 837 837 838 839 839 839 839 840 840 841 842 842 843 843 844 844 844 845 845 845 845 845 845 845 845 846 846 847 847 847 848 848 849 848 849 850 851 851 851 851 851 851 850 850 849 849
790 792 794 796 798 800 802 803 804 805 806 807 808 810 811 813 814 815 815 817 818 821 824 827 828 829 830 830 830 831 831 832 833 833 834 835 835 836 837 837 838 839 839 839 839 840 840 841 842 842 843 843 843 844 844 845 845 846 846 846 846 846 846 846 846 847 847 847 848 848 849 849 848 849 850 851 851 852 852 851 851 851 851 851 850
792 794 796 798 800 801 803 805 806 807 807 808 809 810 812 813 814 815 817 818 819 822 825 827 828 829 830 831 831 831 832 833 833 834 834 835 836 837 837 838 838 839 839 840 840 840 841 841 842 843 843 844 844 844 845 845 846 846 846 846 846 846 846 846 847 847 848 848 848 849 849 849 849 850 851 851 852 852 852 852 852 852 852 852 851
794 795 797 799 800 802 804 805 807 808 808 809 811 811 813 814 815 816 818 819 820 823 825 826 828 829 830 831 832 833 833 834 834 834 835 835 836 836 837 838 838 839 840 841 841 841 842 842 843 844 844 844 844 845 845 845 846 847 847 847 847 847 847 847 848 848 848 849 849 850 850 850 849 850 851 852 852 852 853 853 853 853 853 852 852
796 797 798 799 801 802 804 806 808 808 809 810 812 813 814 815 816 817 818 819 821 823 825 827 828 829 830 832 833 834 834 834 834 835 835 835 836 836 837 838 839 840 841 842 842 842 843 843 844 844 844 845 845 845 845 846 846 847 847 847 847 847 847 848 848 849 849 850 850 851 851 850 850 851 851 852 852 853 853 853 853 854 853 853 853
796 797 798 800 800 802 804 806 807 809 810 811 812 814 815 816 817 817 818 819 821 823 825 827 828 830 831 832 833 834 835 835 835 836 836 836 836 837 838 839 840 841 842 842 843 843 843 844 844 845 845 845 845 845 845 846 846 847 847 847 847 847 848 848 849 849 850 850 851 851 851 851 851 852 852 852 853 853 854 854 854 854 854 854 853
796 797 798 799 800 803 804 806 808 810 811 812 813 814 816 817 817 818 818 820 821 824 826 828 830 831 832 833 834 835 835 835 835 836 836 836 837 838 838 839 840 841 842 842 843 843 844 844 845 845 845 845 845 846 846 846 846 847 847 847 847 847 848 848 849 850 850 851 851 852 851 851 852 852 853 853 853 854 854 854 855 855 855 855 854
795 796 797 799 801 803 805 807 808 810 812 813 814 814 816 817 818 818 819 821 823 825 827 829 831 832 833 834 834 835 835 835 835 836 836 837 838 838 839 840 840 841 842 842 843 843 844 844 845 845 846 846 846 846 846 846 846 847 847 847 847 847 848 849 849 850 851 851 852 852 852 852 853 853 853 853 853 854 854 855 855 855 855 855 855
796 797 799 801 802 804 807 808 808 810 812 814 815 816 817 818 819 819 820 821 823 826 828 829 831 833 834 834 834 834 835 835 835 836 837 838 838 838 839 840 840 841 842 842 843 843 844 844 844 845 846 846 847 847 847 847 847 847 847 847 848 848 848 849 850 850 851 851 852 852 852 853 853 854 854 854 854 854 855 855 855 856 856 856 855
797 798 800 801 802 803 806 810 809 809 813 815 816 817 818 818 819 820 821 822 824 826 827 829 831 832 833 833 834 834 834 835 836 836 837 838 838 839 839 840 840 841 841 842 842 843 843 844 844 845 846 846 847 847 847 847 847 847 847 848 848 848 849 849 850 850 851 851 852 852 852 853 853 854 855 855 855 855 855 856 856 856 856 856 856
797 800 802 803 803 803 805 809 810 810 813 815 815 817 818 819 820 821 822 823 824 826 827 829 830 831 832 833 833 833 834 835 835 836 837 838 838 839 839 840 840 841 841 842 842 843 843 843 844 844 845 846 847 847 847 847 847 847 848 848 848 848 849 849 850 850 851 851 851 852 852 853 853 854 855 855 855 855 855 856 856 857 857 857 857
797 800 803 804 805 805 805 809 811 812 813 814 815 817 818 820 820 821 822 823 825 826 828 829 830 831 831 832 832 833 833 834 835 836 836 837 838 838 838 839 839 840 840 841 842 842 843 843 844 844 845 845 846 846 846 847 847 847 848 848 848 849 849 849 849 850 850 851 851 852 852 853 854 854 855 855 855 856 856 856 856 857 857 858 858
795 795 798 801 803 805 806 808 811 812 814 814 816 817 819 820 821 822 823 824 825 827 828 829 829 830 830 831 832 832 833 834 835 835 836 837 837 837 837 838 838 839 840 841 841 842 843 843 843 844 844 845 845 846 846 846 846 847 847 848 848 849 849 849 850 850 850 851 851 851 852 853 854 854 855 856 856 856 856 856 857 857 858 858 858
795 796 797 799 802 805 806 808 810 812 814 815 817 818 819 820 821 822 823 824 826 827 828 828 829 829 830 830 831 832 833 833 834 835 836 836 836 836 836 837 837 838 839 840 841 841 842 843 843 843 844 845 845 845 846 846 846 846 846 847 847 848 848 849 849 849 850 850 851 851 852 853 854 854 855 856 856 856 857 857 857 857 858 858 859
796 798 800 801 803 805 807 809 810 812 813 815 817 818 820 821 821 822 823 824 825 826 827 828 829 829 829 830 831 832 832 833 834 835 835 835 836 836 836 836 837 838 838 839 840 841 842 842 843 844 844 844 845 845 845 846 846 846 846 846 847 847 848 848 849 849 850 850 851 851 852 852 853 854 855 855 856 856 857 857 857 858 858 859 859
797 799 800 802 804 807 808 809 811 812 813 815 817 818 820 821 821 822 823 824 825 826 827 827 828 828 829 830 830 831 832 832 832 833 834 835 835 836 836 836 836 837 838 838 839 840 841 842 843 844 844 844 845 845 845 845 845 846 846 846 846 847 847 848 848 849 849 849 850 851 851 852 853 854 854 855 855 856 857 857 857 858 858 859 859
798 799 800 802 805 807 809 810 811 812 813 815 816 818 819 820 820 821 822 824 824 825 826 827 827 827 828 829 830 831 831 830 831 833 835 835 835 836 836 836 836 837 837 838 838 839 840 840 842 843 843 844 845 845 845 845 845 845 845 846 846 846 847 847 848 848 848 849 850 850 851 852 853 853 854 854 855 856 856 857 857 858 858 859 859
797 799 801 803 805 807 809 810 811 812 813 815 816 817 818 819 820 821 822 823 824 825 825 826 827 827 828 829 830 830 829 830 831 834 835 836 836 836 837 836 836 836 837 837 838 838 839 839 840 841 842 843 845 845 845 845 845 845 845 846 846 846 847 847 847 848 848 849 849 850 850 851 852 853 853 854 855 855 856 857 857 858 858 859 859
797 798 801 803 804 806 808 809 810 811 813 814 815 816 817 818 819 821 822 823 823 824 825 825 826 828 828 829 829 829 829 830 831 833 834 835 836 836 836 836 836 836 836 837 837 838 838 839 839 841 842 843 844 845 844 844 845 845 845 846 846 846 846 847 847 847 848 848 849 849 850 851 851 852 853 853 854 855 855 856 857 857 858 859 859
796 799 801 802 803 804 806 808 810 811 812 813 814 815 817 818 819 821 822 822 823 824 824 825 826 827 828 828 829 829 829 830 831 832 834 835 835 836 836 836 836 836 836 837 837 838 838 838 839 840 841 842 843 844 844 844 845 845 845 845 846 846 846 846 847 847 847 848 848 849 849 850 851 851 852 853 854 854 855 856 856 857 857 858 859
796 798 800 801 802 803 805 807 808 810 811 812 814 815 816 818 819 821 822 822 823 823 824 825 826 827 828 828 828 829 829 830 830 831 832 833 834 835 835 835 835 835 836 837 837 838 838 838 838 839 840 841 842 843 843 844 844 845 845 845 846 846 846 846 846 847 847 847 848 848 849 849 850 851 851 852 853 854 854 855 855 856 856 857 858
795 797 799 800 801 803 804 806 807 809 811 812 814 815 817 818 819 821 821 822 822 823 824 825 826 827 828 828 828 829 829 829 830 830 831 832 833 833 834 834 834 835 836 836 837 838 838 838 838 839 839 840 841 842 843 844 844 844 845 845 845 845 845 845 846 846 846 847 847 847 848 849 849 850 851 852 852 853 853 854 855 855 856 856 857
795 796 797 799 800 802 804 805 807 809 811 812 814 816 817 818 819 820 821 821 822 824 824 825 826 827 827 828 828 829 829 829 830 830 831 831 832 832 833 834 834 834 835 836 837 838 838 838 838 839 840 840 841 842 843 843 844 844 844 845 845 845 845 845 845 845 845 846 846 847 847 848 848 849 850 851 852 852 853 853 854 854 855 855 856
794 796 797 799 801 802 804 805 808 810 811 813 814 816 817 818 819 820 821 822 823 824 825 826 827 827 827 828 828 829 829 829 830 830 831 831 832 832 832 833 833 834 835 836 837 837 838 838 839 839 840 841 842 842 842 843 844 844 845 845 845 845 845 845 845 845 845 845 846 846 847 847 847 848 849 850 851 851 852 852 853 853 854 855 855
794 795 797 800 801 803 804 806 808 810 811 813 814 816 817 819 820 821 822 822 823 824 825 826 827 827 828 828 828 829 829 829 830 830 831 831 832 832 832 833 833 834 835 836 836 837 838 838 839 840 841 842 841 841 841 842 843 844 844 845 845 845 845 845 844 844 845 845 845 845 846 846 847 847 848 849 850 850 851 852 853 854 854 854 855
794 795 797 800 801 803 805 807 808 810 811 812 814 816 818 819 820 821 822 823 824 825 826 827 827 828 828 828 828 829 829 829 830 830 831 831 831 832 832 833 833 834 835 835 836 837 838 838 839 840 841 842 840 839 840 841 843 843 844 844 844 844 844 844 844 844 844 844 845 845 845 846 846 847 848 848 849 850 850 852 853 854 854 855 855
793 795 797 798 800 802 805 807 808 809 810 812 814 816 818 819 820 821 823 824 825 826 827 827 828 828 829 829 829 829 829 830 830 830 831 831 832 832 833 833 833 834 835 835 836 837 837 838 839 840 841 842 839 838 840 841 842 843 844 844 844 844 844 844 844 845 845 844 844 845 845 846 846 847 847 848 849 849 849 851 853 853 854 855 856
792 794 797 798 799 801 804 806 807 809 810 812 814 817 818 819 821 822 823 824 826 827 827 828 828 829 829 830 830 830 830 830 831 831 831 832 832 833 833 833 834 834 835 835 836 836 837 838 839 839 841 842 840 839 840 841 841 842 843 843 843 844 844 844 844 845 845 845 845 845 845 846 846 847 847 847 848 849 850 851 851 851 852 854 856
792 794 797 799 799 801 803 804 806 808 809 812 814 817 819 821 822 823 825 826 827 827 828 828 828 829 830 830 831 831 831 831 832 832 832 832 833 833 834 834 834 834 835 836 836 836 837 837 838 839 840 841 841 840 841 840 840 841 842 843 842 843 843 843 844 844 844 844 845 845 846 846 846 847 847 847 848 849 850 850 850 849 850 852 854
793 795 798 800 800 801 801 803 805 807 809 811 813 816 819 821 823 825 826 827 827 828 828 828 829 829 830 831 831 832 832 832 832 832 833 833 833 834 834 835 835 835 835 836 836 836 837 837 838 838 839 840 841 841 841 840 841 841 841 842 842 842 842 842 842 843 843 844 845 845 846 846 847 847 847 848 848 848 849 850 850 850 850 851 852
794 797 799 800 801 802 803 804 806 807 809 811 812 815 819 822 824 825 827 827 828 828 828 828 829 830 830 831 832 832 833 833 833 834 834 834 834 835 835 835 835 836 836 836 836 836 836 837 837 838 839 839 840 840 841 841 841 841 841 841 841 842 841 841 842 842 843 844 845 845 846 846 847 847 847 848 848 847 848 849 850 850 850 851 852
795 797 799 800 801 804 806 808 810 810 811 811 812 814 818 821 822 824 826 827 827 828 828 828 829 830 831 832 832 833 834 834 835 835 835 835 836 836 836 836 836 836 836 836 836 836 836 837 837 838 838 838 839 839 840 841 841 841 841 841 842 842 841 842 842 841 843 844 845 846 846 847 847 847 848 848 848 847 847 848 848 849 849 850 851
794 796 798 800 801 803 805 807 809 809 810 812 813 815 818 820 821 823 825 826 827 827 828 829 829 830 831 832 833 834 835 835 836 836 836 836 837 837 837 837 837 837 837 837 837 837 837 837 837 838 838 838 839 839 840 840 841 841 842 842 842 843 843 844 843 841 841 843 845 846 847 847 847 848 848 848 848 848 848 848 848 848 848 849 849
792 794 795 797 798 800 802 803 803 805 808 811 814 815 817 819 820 822 824 825 826 827 828 829 829 831 832 833 834 835 836 836 837 837 837 837 837 837 837 837 837 837 837 837 838 838 838 838 838 838 838 839 839 839 840 840 840 841 842 842 842 843 844 844 843 842 841 842 845 846 847 848 848 848 849 849 849 848 848 848 848 848 849 849 849
790 791 793 794 796 798 800 800 801 804 808 811 813 816 817 818 820 822 823 825 826 827 828 829 830 831 832 834 834 835 836 837 837 837 837 838 838 838 838 838 838 838 838 838 838 838 838 839 839 839 839 840 840 840 841 841 841 841 842 842 842 843 843 843 843 843 841 842 844 846 847 849 849 850 850 849 849 849 848 848 848 848 848 848 849
789 790 791 793 795 795 796 798 800 803 807 810 812 815 818 819 819 821 822 824 825 826 827 828 829 831 832 834 835 836 837 837 838 838 838 838 838 838 838 838 838 838 838 839 839 839 839 839 840 840 840 841 841 841 841 841 842 842 842 842 842 842 842 842 842 842 842 842 844 846 847 848 850 852 852 851 850 850 849 849 848 848 848 848 848
787 789 791 792 792 793 795 796 798 801 805 808 811 814 817 818 818 819 820 822 824 825 826 827 829 830 832 833 835 836 837 838 838 839 839 839 839 839 839 839 839 839 839 839 840 840 840 840 840 841 841 842 842 842 842 842 842 842 842 842 842 842 841 841 841 841 841 842 843 845 847 849 850 853 853 852 852 852 851 851 850 850 849 849 849